Princeton, MN

4:56 AM CST on November 14, 2019 (GMT -0600)
Princeton Municipal

Weather History for KPNM - September, 2019

Change the Weather History Date:

Saturday, September 7, 2019

  Actual Average Record
Temperature  
Mean Temperature 53 °F -  
Max Temperature 60 °F 74 °F 93 °F (2013)
Min Temperature 46 °F 50 °F 39 °F (2017)
Degree Days  
Heating Degree Days 12    
Growing Degree Days 3 (Base 50)    
Moisture  
Dew Point 52 °F    
Average Humidity 91    
Maximum Humidity 100    
Minimum Humidity 77    
Precipitation  
Precipitation 0.00 in - - ()
Sea Level Pressure  
Sea Level Pressure 30.12 in    
Wind  
Wind Speed 1 mph (NNE)    
Max Wind Speed 8 mph    
Max Gust Speed -    
Visibility 8 miles    
Events Fog , Rain    
Averages and records for this station are not official NWS values.
T = Trace of Precipitation, MM = Missing Value Source: NWS Daily Summary

Daily Weather History Graph

Daily Weather History Graph

Search for Another Location

Airport or City:

Astronomy

Sep. 07, 2019 Rise Set
Actual Time 6:42 AM CDT 7:41 PM CDT
Civil Twilight 6:12 AM CDT 8:11 PM CDT
Nautical Twilight 5:36 AM CDT 8:47 PM CDT
Astronomical Twilight 4:58 AM CDT 9:25 PM CDT
Moon 4:12 PM CDT (9/7) 12:21 AM CDT (9/7)
Length of Visible Light 13h 58m
Length of Day
12h 58m
Waxing Gibbous, 66% of the Moon is Illuminated
Sep 7
Waxing Gibbous
Sep 13
Full
Sep 21
Last Quarter
Sep 28
New
Oct 5
First Quarter

Hourly Weather History & Observations

Time (CDT) Temp. Dew Point Humidity Pressure Visibility Wind Dir Wind Speed Gust Speed Precip Events Conditions
12:15 AM 53.6 °F 51.8 °F 94% 30.10 in 10.0 mi Calm Calm - N/A   Clear
12:16 AM 53.6 °F 51.8 °F 94% 30.10 in 10.0 mi Calm Calm - N/A   Clear
12:35 AM 51.8 °F 51.8 °F 100% 30.10 in 1.2 mi Calm Calm - N/A   Clear
12:58 AM 51.8 °F 51.8 °F 100% 30.11 in 10.0 mi Calm Calm - N/A   Clear
1:16 AM 50.0 °F 48.2 °F 94% 30.11 in 5.0 mi Calm Calm - N/A   Clear
1:36 AM 51.8 °F 51.8 °F 100% 30.11 in 4.0 mi WNW 3.5 mph - N/A   Clear
1:55 AM 51.8 °F 50.0 °F 94% 30.11 in 10.0 mi Calm Calm - N/A   Clear
2:19 AM 50.0 °F 48.2 °F 94% 30.11 in 10.0 mi Calm Calm - N/A   Clear
2:37 AM 50.0 °F 48.2 °F 94% 30.11 in 10.0 mi Calm Calm - N/A   Clear
2:55 AM 50.0 °F 48.2 °F 94% 30.11 in 7.0 mi Calm Calm - N/A   Clear
2:56 AM 50.0 °F 48.2 °F 94% 30.11 in 7.0 mi Calm Calm - N/A   Clear
3:15 AM 50.0 °F 48.2 °F 94% 30.11 in 10.0 mi Calm Calm - N/A   Clear
3:35 AM 48.2 °F 48.2 °F 100% 30.11 in 2.5 mi Calm Calm - N/A   Clear
3:58 AM 48.2 °F 48.2 °F 100% 30.12 in 0.5 mi Calm Calm - N/A Fog Fog
4:16 AM 48.2 °F 48.2 °F 100% 30.12 in 4.0 mi Calm Calm - N/A   Scattered Clouds
4:35 AM 48.2 °F 48.2 °F 100% 30.11 in 0.5 mi Calm Calm - N/A Fog Fog
4:36 AM 48.2 °F 48.2 °F 100% 30.11 in 0.5 mi Calm Calm - N/A Fog Fog
4:55 AM 48.2 °F 46.4 °F 93% 30.11 in 0.8 mi Calm Calm - N/A   Mist
4:56 AM 48.2 °F 46.4 °F 93% 30.11 in 0.8 mi Calm Calm - N/A   Mist
5:19 AM 48.2 °F 46.4 °F 93% 30.10 in 0.5 mi Calm Calm - N/A Fog Fog
5:37 AM 48.2 °F 46.4 °F 93% 30.11 in 1.0 mi Calm Calm - N/A   Clear
5:55 AM 48.2 °F 46.4 °F 93% 30.11 in 7.0 mi Calm Calm - N/A   Clear
6:15 AM 46.4 °F 46.4 °F 100% 30.11 in 0.5 mi Calm Calm - N/A Fog Fog
6:16 AM 46.4 °F 46.4 °F 100% 30.11 in 0.5 mi Calm Calm - N/A Fog Fog
6:35 AM 46.4 °F 46.4 °F 100% 30.11 in 0.5 mi Calm Calm - N/A Fog Fog
6:40 AM 46.4 °F 46.4 °F 100% 30.11 in 0.8 mi Calm Calm - N/A   Mist
6:58 AM 46.4 °F 44.6 °F 93% 30.11 in 0.2 mi Calm Calm - N/A Fog Fog
7:16 AM 46.4 °F 46.4 °F 100% 30.10 in 0.5 mi Calm Calm - N/A Fog Fog
7:35 AM 48.2 °F 46.4 °F 93% 30.10 in 7.0 mi Calm Calm - N/A   Clear
7:36 AM 48.2 °F 48.2 °F 100% 30.11 in 10.0 mi Calm Calm - N/A   Clear
7:55 AM 51.8 °F 50.0 °F 94% 30.11 in 10.0 mi Calm Calm - N/A   Clear
7:56 AM 51.8 °F 50.0 °F 94% 30.11 in 10.0 mi Calm Calm - N/A   Clear
8:19 AM 51.8 °F 51.8 °F 100% 30.11 in 10.0 mi Calm Calm - N/A   Clear
8:37 AM 53.6 °F 53.6 °F 100% 30.11 in 10.0 mi Calm Calm - N/A   Clear
8:55 AM 53.6 °F 53.6 °F 100% 30.11 in 10.0 mi Calm Calm - N/A   Clear
8:56 AM 53.6 °F 53.6 °F 100% 30.11 in 10.0 mi Calm Calm - N/A   Clear
9:15 AM 55.4 °F 53.6 °F 94% 30.11 in 10.0 mi Calm Calm - N/A   Clear
9:16 AM 55.4 °F 53.6 °F 94% 30.11 in 10.0 mi Calm Calm - N/A   Clear
9:35 AM 55.4 °F 53.6 °F 94% 30.10 in 10.0 mi Calm Calm - N/A   Clear
9:40 AM 55.4 °F 53.6 °F 94% 30.10 in 10.0 mi Calm Calm - N/A   Clear
9:58 AM 55.4 °F 53.6 °F 94% 30.10 in 10.0 mi North 4.6 mph - N/A   Clear
10:16 AM 55.4 °F 55.4 °F 100% 30.11 in 10.0 mi Calm Calm - N/A   Clear
10:35 AM 57.2 °F 55.4 °F 94% 30.10 in 10.0 mi North 4.6 mph - N/A   Clear
10:55 AM 57.2 °F 55.4 °F 94% 30.12 in 10.0 mi Calm Calm - N/A   Scattered Clouds
10:56 AM 57.2 °F 55.4 °F 94% 30.12 in 10.0 mi Calm Calm - N/A   Scattered Clouds
11:18 AM 59.0 °F 55.4 °F 88% 30.12 in 10.0 mi Calm Calm - N/A   Clear
11:37 AM 59.0 °F 53.6 °F 82% 30.12 in 10.0 mi Calm Calm - N/A   Clear
11:55 AM 59.0 °F 53.6 °F 82% 30.12 in 10.0 mi Calm Calm - N/A   Clear
12:15 PM 60.8 °F 53.6 °F 77% 30.12 in 7.0 mi NNE 4.6 mph - N/A   Clear
12:16 PM 60.8 °F 53.6 °F 77% 30.12 in 7.0 mi NE 3.5 mph - N/A   Clear
12:35 PM 59.0 °F 51.8 °F 77% 30.12 in 10.0 mi NNW 3.5 mph - N/A   Clear
12:58 PM 59.0 °F 51.8 °F 77% 30.12 in 10.0 mi North 5.8 mph - N/A Rain Light Rain
1:16 PM 59.0 °F 53.6 °F 82% 30.13 in 10.0 mi NNE 3.5 mph - N/A Rain Light Rain
1:35 PM 59.0 °F 53.6 °F 82% 30.13 in 10.0 mi Calm Calm - N/A Rain Light Rain
1:36 PM 59.0 °F 55.4 °F 88% 30.13 in 10.0 mi Calm Calm - N/A Rain Light Rain
1:55 PM 60.8 °F 55.4 °F 82% 30.13 in 10.0 mi Calm Calm - N/A Rain Light Rain
1:56 PM 60.8 °F 55.4 °F 82% 30.13 in 10.0 mi Calm Calm - N/A Rain Light Rain
2:19 PM 60.8 °F 55.4 °F 82% 30.13 in 10.0 mi Calm Calm - N/A   Light Drizzle
2:37 PM 60.8 °F 55.4 °F 82% 30.13 in 10.0 mi Calm Calm - N/A   Scattered Clouds
2:55 PM 60.8 °F 55.4 °F 82% 30.13 in 10.0 mi Calm Calm - N/A   Mostly Cloudy
2:56 PM 60.8 °F 55.4 °F 82% 30.13 in 10.0 mi Calm Calm - N/A Rain Light Rain
3:15 PM 60.8 °F 55.4 °F 82% 30.12 in 10.0 mi Calm Calm - N/A Rain Light Rain
3:35 PM 60.8 °F 55.4 °F 82% 30.11 in 10.0 mi NNE 4.6 mph - N/A Rain Light Rain
3:58 PM 59.0 °F 55.4 °F 88% 30.10 in 10.0 mi NNE 4.6 mph - N/A Rain Light Rain
4:16 PM 60.8 °F 57.2 °F 88% 30.10 in 10.0 mi NNE 5.8 mph - N/A Rain Light Rain
4:35 PM 60.8 °F 53.6 °F 77% 30.09 in 10.0 mi North 8.1 mph - N/A   Clear
4:55 PM 60.8 °F 53.6 °F 77% 30.10 in 10.0 mi North 6.9 mph - N/A Rain Light Rain
5:19 PM 59.0 °F 53.6 °F 82% 30.10 in 10.0 mi NNW 5.8 mph - N/A Rain Light Rain
5:37 PM 59.0 °F 53.6 °F 82% 30.10 in 10.0 mi Calm Calm - N/A Rain Light Rain
5:55 PM 59.0 °F 51.8 °F 77% 30.10 in 10.0 mi North 4.6 mph - N/A Rain Light Rain
6:15 PM 57.2 °F 51.8 °F 82% 30.10 in 10.0 mi North 4.6 mph - N/A Rain Light Rain
6:35 PM 57.2 °F 53.6 °F 88% 30.10 in 10.0 mi NNW 3.5 mph - N/A   Light Drizzle
6:40 PM 57.2 °F 53.6 °F 88% 30.11 in 10.0 mi NNW 3.5 mph - N/A   Mostly Cloudy
6:58 PM 57.2 °F 53.6 °F 88% 30.11 in 10.0 mi Calm Calm - N/A   Overcast
7:16 PM 57.2 °F 53.6 °F 88% 30.11 in 10.0 mi Calm Calm - N/A Rain Light Rain
7:35 PM 57.2 °F 53.6 °F 88% 30.11 in 10.0 mi Calm Calm - N/A Rain Light Rain
7:55 PM 57.2 °F 53.6 °F 88% 30.11 in 10.0 mi NE 3.5 mph - N/A Rain Light Rain
7:56 PM 57.2 °F 53.6 °F 88% 30.11 in 10.0 mi NE 3.5 mph - N/A Rain Light Rain
8:19 PM 55.4 °F 53.6 °F 94% 30.12 in 10.0 mi NNE 3.5 mph - N/A Rain Light Rain
8:37 PM 55.4 °F 51.8 °F 88% 30.12 in 10.0 mi Calm Calm - N/A Rain Light Rain
8:55 PM 55.4 °F 51.8 °F 88% 30.13 in 10.0 mi Calm Calm - N/A Rain Light Rain
9:15 PM 55.4 °F 51.8 °F 88% 30.14 in 10.0 mi Calm Calm - N/A   Light Drizzle
9:16 PM 55.4 °F 51.8 °F 88% 30.14 in 10.0 mi Calm Calm - N/A   Light Drizzle
9:35 PM 55.4 °F 51.8 °F 88% 30.14 in 10.0 mi Calm Calm - N/A Rain Light Rain
9:40 PM 55.4 °F 51.8 °F 88% 30.13 in 10.0 mi NNE 3.5 mph - N/A Rain Light Rain
9:58 PM 55.4 °F 51.8 °F 88% 30.14 in 10.0 mi NNE 3.5 mph - N/A Rain Light Rain
10:16 PM 53.6 °F 51.8 °F 94% 30.14 in 10.0 mi NNE 4.6 mph - N/A   Overcast
10:35 PM 55.4 °F 51.8 °F 88% 30.14 in 10.0 mi NNE 4.6 mph - N/A Rain Light Rain
10:55 PM 53.6 °F 51.8 °F 94% 30.15 in 10.0 mi NNE 3.5 mph - N/A   Light Drizzle
10:56 PM 53.6 °F 51.8 °F 94% 30.15 in 10.0 mi Calm Calm - N/A   Light Drizzle
11:19 PM 53.6 °F 51.8 °F 94% 30.15 in 10.0 mi NE 3.5 mph - N/A   Scattered Clouds
11:37 PM 53.6 °F 51.8 °F 94% 30.14 in 10.0 mi NE 3.5 mph - N/A   Overcast
11:55 PM 53.6 °F 51.8 °F 94% 30.14 in 10.0 mi NE 3.5 mph - N/A   Overcast